軌道要素
Epoch 2005 July 9.0 TT = JDT 2453560.5
T 2005 July 5.3153 TT MPCN
q 1.506167 (2000.0) P Q
n 0.1787117 Peri. 178.8390 -0.3779058 +0.9100015
a 3.121530 Node 68.9373 -0.8509115 -0.2687824
e 0.517491 Incl. 10.5301 -0.3648792 -0.3156792
P 5.52
From 672 observations 1967-2000, mean residual 0".8. Nongravitational
parameters A1 = +0.01, A2 = +0.0018.
|